sat.trackr.live / text

‹ back to catalog

STARLINK-1579

NORAD 46083 · 2020-055BJ

PAYLOAD ACTIVE UNKNOWN

§ Identity

Operator
Country
US
Launch date
2020-08-07
Launch site
AFETR
Launch vehicle
Mass (kg)
RCS (m²)

Purposes: comms

External: N2YO · Heavens-Above · Gunter

§ Orbital elements

Epoch: 2026-05-25T03:42:58.620960Z

Period
94.01 min
Inclination
53.1615°
Eccentricity
0.0001237
Mean motion
15.31700087 rev/d
Perigee alt
469.9 km
Apogee alt
471.6 km
Semi-major
6,848.9 km
B*
3.9687e-5
RAAN
105.5509°
Arg perigee
89.5768°
Mean anomaly
270.5375°
Rev number
32,094

§ Raw data

STARLINK-15791 46083U 20055BJ  26145.15484515  .00000867  00000+0  39687-4 0  99912 46083  53.1615 105.5509 0001237  89.5768 270.5375 15.31700087320944

JSON: /api/v1/satellites/46083 · /tle

For live sub-satellite position, see the globe view (requires WebGL).

§ Visibility from observer

Set your observer location to see the next 7 days of passes ≥ 10°. The values pass through the URL so the page stays shareable.

No JS? Fill the form by hand. The geolocation button needs JavaScript.